الصفحة الرئيسية
METAR-TAF:

METAR-TAF

مطار :

Front Range

دنفر, كولورادو, الولايات المتحدة

دائرة عرض: 39-47N, خط طول: 104-33W, ارتفاع: 1709 متر

مراقبة الطقس الحالي

تاريخ ووقت الإصدار 28 دقيقة قبل الساعة 21:54UTC
رياح هادئة
درجة الحرارة 29°درجة مئوية
الرطوبة 8%
ضغط 1020 hPa
الرؤية: 16.1 كم
غيوم قليلة على ارتفاع 12000 قدم

METAR: KFTG 222154Z 00000KT 10SM FEW120 29/M09 A3012

زمن: 16:22 (22:22 UTC)


TAF: مفقودة

أرصاد الطقس والتوقعات من أكثر من 4000 مطار (تقارير الطقس للمطار METAR والتنبؤ بالطقس بالمطارTAF).

المحطات المتاحة هي النقط الصفراء والحمراء على الخريطة.

حرك المؤشر فوق النقطة لمعرفة اسم المحطة.

ثم انقر لمعرفة أرصاد وتوقعات الطقس.

لتغيير الخارطة: اضغط على الأزرار الخضراء مع رمز الصليب الأسود للتكبير. على الزر الأخضر مع شرطة للتصغير، أو على الأسهم الخضراء للخرائط المجاورة.


METAR-TAF: